Mitchell, SD

10:52 AM CDT on June 23, 2017 (GMT -0500)
Mitchell Municipal

Weather History for KMHE - August, 2013

Change the Weather History Date:

Friday, August 16, 2013

  Actual Average Record
Temperature  
Mean Temperature 63 °F 72 °F  
Max Temperature 72 °F 83 °F 102 °F (1988)
Min Temperature 54 °F 61 °F 38 °F (1897)
Degree Days  
Heating Degree Days 2 0  
Month to date heating degree days 3 0  
Since 1 June heating degree days 73 40  
Since 1 July heating degree days 23 5  
Cooling Degree Days 0 8  
Month to date cooling degree days 53 135  
Year to date cooling degree days 565 653  
Since 1 June cooling degree days 508 613  
Growing Degree Days 14 (Base 50)    
Moisture  
Dew Point 59 °F    
Average Humidity 84    
Maximum Humidity 100    
Minimum Humidity 68    
Precipitation  
Precipitation 0.00 in 0.08 in 1.68 in (1980)
Month to date precipitation 2.55 1.27  
Year to date precipitation 18.50 15.24  
Snow  
Snow 0.00 in - 0.00 in ()
Month to date snowfall 0.0  
Since 1 June snowfall 0.0  
Since 1 July snowfall 0.0  
Snow Depth 0.00 in    
Sea Level Pressure  
Sea Level Pressure 30.14 in    
Wind  
Wind Speed 6 mph (SE)    
Max Wind Speed 14 mph    
Max Gust Speed 17 mph    
Visibility 6 miles    
Events Fog    
T = Trace of Precipitation, MM = Missing Value Source: NWS Daily Summary

Daily Weather History Graph

Daily Weather History Graph

Search for Another Location

Airport or City:

Trip Planner

Search our weather history database for the weather conditions in past years. The results will help you decide how hot, cold, wet, or windy it might be!

Date:

Astronomy

Aug. 16, 2013 Rise Set
Actual Time 6:37 AM CDT 8:33 PM CDT
Civil Twilight 6:06 AM CDT 9:04 PM CDT
Nautical Twilight 5:28 AM CDT 9:42 PM CDT
Astronomical Twilight 4:47 AM CDT 10:23 PM CDT
Moon 4:58 PM CDT (8/16) 1:38 AM CDT (8/16)
Length of Visible Light 14h 57m
Length of Day
13h 56m
Waxing Gibbous, 75% of the Moon is Illuminated
Aug 16
Waxing Gibbous
Aug 20
Full
Aug 28
Last Quarter
Sep 5
New
Sep 12
First Quarter

Hourly Weather History & Observations

Time (CDT) Temp. Dew Point Humidity Pressure Visibility Wind Dir Wind Speed Gust Speed Precip Events Conditions
12:53 AM 63.0 °F 62.1 °F 97% 30.13 in 8.0 mi Calm Calm - N/A   Overcast
1:18 AM 62.6 °F 60.8 °F 94% 30.13 in 6.0 mi Calm Calm - N/A   Mostly Cloudy
1:50 AM 60.8 °F 59.0 °F 94% 30.13 in 1.8 mi ESE 3.5 mph - N/A   Clear
1:53 AM 59.0 °F 59.0 °F 100% 30.13 in 0.8 mi ESE 3.5 mph - N/A   Clear
1:57 AM 59.0 °F 59.0 °F 100% 30.13 in 0.2 mi ESE 3.5 mph - N/A Fog Fog
2:05 AM 57.2 °F 57.2 °F 100% 30.13 in 0.2 mi ESE 5.8 mph - N/A Fog Fog
2:19 AM 57.2 °F 57.2 °F 100% 30.13 in 0.8 mi East 3.5 mph - N/A   Mist
2:29 AM 57.2 °F 57.2 °F 100% 30.13 in 0.2 mi East 3.5 mph - N/A Fog Fog
2:53 AM 57.9 °F 57.0 °F 97% 30.13 in 0.5 mi Calm Calm - N/A Fog Fog
2:58 AM 57.2 °F 57.2 °F 100% 30.13 in 1.2 mi SSE 3.5 mph - N/A   Scattered Clouds
3:01 AM 57.2 °F 57.2 °F 100% 30.13 in 3.0 mi SE 3.5 mph - N/A   Scattered Clouds
3:43 AM 55.4 °F 55.4 °F 100% 30.14 in 1.5 mi ESE 3.5 mph - N/A   Clear
3:45 AM 55.4 °F 55.4 °F 100% 30.14 in 0.8 mi ESE 3.5 mph - N/A   Mist
3:53 AM 55.0 °F 55.0 °F 100% 30.14 in 0.2 mi East 3.5 mph - N/A Fog Fog
4:01 AM 55.4 °F 55.4 °F 100% 30.14 in 0.2 mi Calm Calm - N/A Fog Fog
4:07 AM 55.4 °F 55.4 °F 100% 30.14 in 1.0 mi Calm Calm - N/A   Mostly Cloudy
4:12 AM 55.4 °F 55.4 °F 100% 30.14 in 3.0 mi Calm Calm - N/A   Overcast
4:53 AM 57.9 °F 57.0 °F 97% 30.14 in 7.0 mi Calm Calm - N/A   Overcast
5:53 AM 59.0 °F 57.9 °F 96% 30.13 in 7.0 mi East 3.5 mph - N/A   Overcast
6:53 AM 59.0 °F 57.9 °F 96% 30.15 in 7.0 mi Calm Calm - N/A   Overcast
7:53 AM 60.1 °F 59.0 °F 96% 30.16 in 6.0 mi East 3.5 mph - N/A   Overcast
8:27 AM 60.8 °F 59.0 °F 94% 30.16 in 6.0 mi ESE 3.5 mph - N/A   Overcast
8:53 AM 61.0 °F 59.0 °F 93% 30.16 in 7.0 mi SE 6.9 mph - N/A   Overcast
9:53 AM 63.0 °F 60.1 °F 90% 30.16 in 6.0 mi SSE 8.1 mph - N/A   Overcast
10:53 AM 63.0 °F 60.1 °F 90% 30.17 in 8.0 mi SE 8.1 mph - N/A   Overcast
11:02 AM 64.4 °F 60.8 °F 88% 30.17 in 8.0 mi SE 8.1 mph - N/A   Overcast
11:29 AM 64.4 °F 60.8 °F 88% 30.17 in 10.0 mi SE 6.9 mph - N/A   Overcast
11:53 AM 66.9 °F 60.1 °F 79% 30.16 in 10.0 mi ESE 6.9 mph - N/A   Overcast
12:35 PM 66.2 °F 60.8 °F 83% 30.16 in 10.0 mi ESE 9.2 mph - N/A   Overcast
12:53 PM 66.9 °F 60.1 °F 79% 30.15 in 10.0 mi SE 6.9 mph - N/A   Overcast
1:14 PM 66.2 °F 60.8 °F 83% 30.15 in 10.0 mi SE 9.2 mph - N/A   Overcast
1:53 PM 69.1 °F 61.0 °F 75% 30.14 in 10.0 mi SSE 6.9 mph - N/A   Overcast
2:40 PM 69.8 °F 60.8 °F 73% 30.14 in 10.0 mi SSE 10.4 mph - N/A   Overcast
2:53 PM 69.1 °F 61.0 °F 75% 30.14 in 10.0 mi SSE 9.2 mph - N/A   Overcast
3:20 PM 69.8 °F 60.8 °F 73% 30.14 in 10.0 mi SE 8.1 mph - N/A   Overcast
3:53 PM 72.0 °F 62.1 °F 71% 30.13 in 10.0 mi SSE 10.4 mph - N/A   Overcast
4:53 PM 71.1 °F 61.0 °F 70% 30.12 in 10.0 mi SE 10.4 mph - N/A   Overcast
5:53 PM 71.1 °F 60.1 °F 68% 30.11 in 10.0 mi SSE 9.2 mph - N/A   Overcast
6:53 PM 71.1 °F 61.0 °F 70% 30.11 in 10.0 mi SSE 9.2 mph - N/A   Overcast
7:53 PM 69.1 °F 61.0 °F 75% 30.11 in 10.0 mi SSE 9.2 mph - N/A   Overcast
8:53 PM 64.0 °F 61.0 °F 90% 30.12 in 10.0 mi SE 6.9 mph - N/A   Clear
9:53 PM 63.0 °F 60.1 °F 90% 30.13 in 8.0 mi SE 6.9 mph - N/A   Clear
10:53 PM 63.0 °F 61.0 °F 93% 30.13 in 5.0 mi SSE 8.1 mph - N/A   Clear
11:53 PM 62.1 °F 60.1 °F 93% 30.13 in 4.0 mi SSE 6.9 mph - N/A   Clear